Lubbock, TX

5:42 AM CST on December 14, 2019 (GMT -0600)
Lubbock International

Weather History for KLBB - May, 2019

Change the Weather History Date:

Sunday, May 26, 2019

  Actual Average Record
Temperature  
Mean Temperature 71 °F 73 °F  
Max Temperature 78 °F 86 °F 102 °F (2018)
Min Temperature 64 °F 59 °F 43 °F (1950)
Degree Days  
Heating Degree Days 0 1  
Month to date heating degree days 52 39  
Since 1 July heating degree days 3449 3376  
Cooling Degree Days 6 8  
Month to date cooling degree days 115 145  
Year to date cooling degree days 178 201  
Growing Degree Days 21 (Base 50)    
Moisture  
Dew Point 65 °F    
Average Humidity 84    
Maximum Humidity 93    
Minimum Humidity 69    
Precipitation  
Precipitation T in 0.09 in 1.60 in (2014)
Month to date precipitation 3.93 1.83  
Year to date precipitation 6.85 5.74  
Snow  
Snow 0.00 in 0.00 in T in (1996)
Month to date snowfall T 0.0  
Since 1 July snowfall 10.1 8.2  
Snow Depth 0.00 in    
Sea Level Pressure  
Sea Level Pressure 29.89 in    
Wind  
Wind Speed 12 mph ()    
Max Wind Speed 28 mph    
Max Gust Speed 35 mph    
Visibility 8.4 miles    
Events Rain    
T = Trace of Precipitation, MM = Missing Value Source: Averaged Metar Reports

Daily Weather History Graph

Daily Weather History Graph

Search for Another Location

Airport or City:

Astronomy

May. 26, 2019 Rise Set
Actual Time 6:40 AM CDT 8:48 PM CDT
Civil Twilight 6:12 AM CDT 9:17 PM CDT
Nautical Twilight 5:37 AM CDT 9:51 PM CDT
Astronomical Twilight 5:00 AM CDT 10:28 PM CDT
Moon 2:28 AM CDT (5/26) 1:32 PM CDT (5/26)
Length of Visible Light 15h 04m
Length of Day
14h 08m
Waning Gibbous, 50% of the Moon is Illuminated
May 26
Waning Gibbous
Jun 3
New
Jun 10
First Quarter
Jun 17
Full
Jun 25
Last Quarter

Hourly Weather History & Observations

Time (CDT) Temp. Dew Point Humidity Pressure Visibility Wind Dir Wind Speed Gust Speed Precip Events Conditions
12:53 AM 69.1 °F 64.0 °F 84% 29.84 in 9.0 mi South 8.1 mph - N/A   Clear
1:53 AM 64.9 °F 62.1 °F 90% 29.84 in 8.0 mi SE 5.8 mph - N/A   Clear
2:53 AM 64.9 °F 63.0 °F 93% 29.84 in 7.0 mi ESE 8.1 mph - N/A   Clear
3:53 AM 64.9 °F 63.0 °F 93% 29.84 in 8.0 mi ESE 5.8 mph - N/A   Clear
4:29 AM 64.9 °F 63.0 °F 93% 29.96 in 7.0 mi SE 8.1 mph - N/A   Mostly Cloudy
4:53 AM 66.0 °F 64.0 °F 93% 29.83 in 7.0 mi SE 10.4 mph - N/A   Mostly Cloudy
5:53 AM 66.9 °F 64.0 °F 90% 29.84 in 8.0 mi SSE 8.1 mph - N/A   Overcast
6:20 AM 66.9 °F 64.9 °F 93% 29.98 in 8.0 mi SE 8.1 mph - N/A   Overcast
6:53 AM 68.0 °F 64.9 °F 90% 29.85 in 5.0 mi SSE 11.5 mph - N/A   Overcast
7:08 AM 68.0 °F 64.9 °F 90% 29.99 in 5.0 mi SE 11.5 mph - N/A   Overcast
7:53 AM 68.0 °F 66.0 °F 93% 29.86 in 5.0 mi SSE 12.7 mph - N/A   Overcast
7:59 AM 68.0 °F 66.0 °F 93% 29.99 in 5.0 mi SSE 12.7 mph - N/A   Overcast
8:14 AM 68.0 °F 66.0 °F 93% 29.99 in 5.0 mi SSE 15.0 mph - N/A   Overcast
8:53 AM 69.1 °F 66.0 °F 90% 29.86 in 6.0 mi SSE 15.0 mph - N/A   Overcast
9:16 AM 70.0 °F 66.0 °F 87% 30.00 in 8.0 mi SSE 15.0 mph - N/A   Overcast
9:53 AM 71.1 °F 64.9 °F 81% 29.88 in 10.0 mi South 18.4 mph - N/A   Overcast
10:38 AM 71.1 °F 66.0 °F 84% 30.00 in 10.0 mi South 16.1 mph 21.9 mph N/A   Overcast
10:53 AM 70.0 °F 66.0 °F 87% 29.87 in 8.0 mi SE 15.0 mph 24.2 mph N/A   Overcast
11:04 AM 70.0 °F 66.0 °F 87% 30.01 in 8.0 mi SSE 15.0 mph - N/A   Overcast
11:14 AM 70.0 °F 66.0 °F 87% 30.00 in 8.0 mi SE 15.0 mph - N/A   Overcast
11:20 AM 70.0 °F 66.0 °F 87% 30.00 in 8.0 mi SSE 15.0 mph - N/A   Overcast
11:30 AM 70.0 °F 66.0 °F 87% 30.01 in 8.0 mi SSE 16.1 mph - N/A   Overcast
11:36 AM 70.0 °F 66.0 °F 87% 30.01 in 8.0 mi SSE 15.0 mph - N/A   Overcast
11:53 AM 71.1 °F 66.0 °F 84% 29.88 in 9.0 mi SSE 15.0 mph - N/A   Overcast
12:44 PM 71.1 °F 66.0 °F 84% 30.00 in 9.0 mi SSE 16.1 mph - N/A   Overcast
12:53 PM 71.1 °F 66.0 °F 84% 29.88 in 10.0 mi SSE 15.0 mph - N/A   Overcast
1:53 PM 73.0 °F 64.9 °F 76% 29.89 in 10.0 mi South 18.4 mph - N/A   Overcast
2:33 PM 73.0 °F 64.9 °F 76% 30.01 in 10.0 mi South 15.0 mph - N/A   Overcast
2:53 PM 73.0 °F 64.9 °F 76% 29.88 in 10.0 mi South 20.7 mph - N/A   Overcast
3:53 PM 73.9 °F 66.0 °F 76% 29.84 in 10.0 mi SSE 15.0 mph - N/A   Overcast
4:53 PM 75.0 °F 66.0 °F 73% 29.81 in 10.0 mi SSE 21.9 mph - N/A   Overcast
5:53 PM 75.0 °F 66.9 °F 76% 29.73 in 10.0 mi SE 27.6 mph 34.5 mph 0.00 in Rain Light Rain
6:53 PM 77.0 °F 66.0 °F 69% 29.75 in 10.0 mi SSE 26.5 mph 29.9 mph 0.00 in   Mostly Cloudy
7:27 PM 75.9 °F 66.0 °F 71% 29.88 in 10.0 mi SSE 20.7 mph 32.2 mph N/A   Mostly Cloudy
7:53 PM 75.0 °F 64.9 °F 71% 29.73 in 10.0 mi SSE 23.0 mph 33.4 mph N/A   Mostly Cloudy
8:53 PM 73.0 °F 64.9 °F 76% 29.72 in 10.0 mi SSE 23.0 mph - N/A   Scattered Clouds
9:53 PM 71.1 °F 64.9 °F 81% 29.76 in 10.0 mi SSE 16.1 mph - N/A   Scattered Clouds
10:53 PM 70.0 °F 64.0 °F 81% 29.76 in 10.0 mi South 12.7 mph - N/A   Partly Cloudy
11:53 PM 71.1 °F 64.0 °F 78% 29.75 in 10.0 mi South 15.0 mph - N/A   Partly Cloudy